Location: Palo Alto
(37.4420°N, 122.1420°W)
Time: 19:06:33
(UTC-07:00)

ARGOS - Visible Passes

Search period start: 23 March 2017 00:00
Search period end: 02 April 2017 00:00
Orbit: 819 x 836 km, 98.6° (Epoch: 22 March)

Date Brightness Start Highest point End Pass type
(mag) Time Alt. Az. Time Alt. Az. Time Alt. Az.
23 Mar 4.7 21:29:44 21° NE 21:29:44 21° NE 21:32:16 10° NNE visible
23 Mar 5.5 23:11:14 19° NW 23:11:14 19° NW 23:12:54 10° NNW visible
24 Mar 4.9 21:10:50 16° NE 21:10:50 16° NE 21:13:02 10° NNE visible
24 Mar 5.1 22:52:21 25° NNW 22:52:21 25° NNW 22:54:36 10° NNW visible
25 Mar 5.1 20:51:57 12° NE 20:51:57 12° NE 20:53:12 10° NE visible
25 Mar 4.7 22:33:27 31° NNW 22:33:27 31° NNW 22:36:09 10° NNW visible
26 Mar 4.4 22:14:34 34° N 22:14:34 34° N 22:17:33 10° N visible
27 Mar 4.3 21:55:40 32° NNE 21:55:40 32° NNE 21:58:49 10° N visible
27 Mar 5.8 23:37:10 14° NW 23:37:10 14° NW 23:38:09 10° NW visible
28 Mar 4.4 21:36:47 26° NE 21:36:47 26° NE 21:39:56 10° N visible
28 Mar 5.4 23:18:17 20° NW 23:18:17 20° NW 23:20:12 10° NW visible
29 Mar 4.7 21:17:53 20° NE 21:17:53 20° NE 21:20:50 10° NNE visible
29 Mar 5.0 22:59:24 27° NW 22:59:24 27° NW 23:01:59 10° NNW visible
30 Mar 5.0 20:59:00 14° ENE 20:59:00 14° ENE 21:01:21 10° NNE visible
30 Mar 4.5 22:40:30 35° NNW 22:40:30 35° NNW 22:43:36 10° NNW visible
31 Mar 4.1 22:21:38 41° N 22:21:38 41° N 22:25:03 10° N visible
01 Apr 4.0 22:02:44 39° NNE 22:02:44 39° NNE 22:06:23 10° N visible
01 Apr 5.8 23:44:14 13° WNW 23:44:14 13° WNW 23:45:15 10° NW visible
